Flag for Germany Weather for the Past 2 Weeks in Rheinfelden (Baden), Baden-Württemberg, Germany

Now
55 °F

Sunny.


Feels Like: 55 °F
Forecast: 39 / 59 °F
Wind: 2 mph from North

Location: Bale-Mulhouse

Current Time: May 2, 2016 at 9:44:57 PM

Latest Report: May 2, 2016 at 9:00 PM


Visibility: 10 mi

Pressure: 30.12 "Hg

Humidity: 72%

Dew Point: 46 °F

Location of Rheinfelden (Baden)Location

Historic Weather in Rheinfelden (Baden) — Graph

°F

Rheinfelden (Baden) Temperature Yesterday

Maximum temperature yesterday: 48 °F (at 5:30 PM)
Minimum temperature yesterday: 41 °F (at 6:30 AM)
Average temperature yesterday: 45 °F

High & Low Weather Summary for the Past Weeks

 TemperatureHumidityPressure
High70 °F (Apr 21, 4:00 PM)100% (Apr 19, 2:00 AM)30.33 "Hg (Apr 19, 2:00 AM)
Low30 °F (Apr 28, 5:30 AM)38% (Apr 21, 6:30 PM)29.68 "Hg (Apr 26, 12:30 PM)
Average47 °F76%30.03 "Hg
* Reported Apr 17 8:00 PM — May 2 8:30 PM, Rheinfelden (Baden), Weather by CustomWeather, © 2016

Note: Actual official high and low records may vary slightly from our data, if they occured in-between our weather recording intervals... More about our weather records

Advertising

Rheinfelden (Baden) Weather History for the Previous 24 Hours

Scroll right to see more
 ConditionsComfort  
Time TempWeatherWind HumidityBarometerVisibility
8:30 PM
Mon, May 2
59 °FSunny.3 mph55%30.12 "Hg10 mi
8:00 PM61 °FSunny.3 mph52%30.09 "Hg10 mi
7:30 PM64 °FPartly sunny.2 mph43%30.09 "HgN/A
7:00 PM64 °FPartly sunny.3 mph49%30.09 "HgN/A
6:30 PM64 °FBroken clouds.3 mph56%30.12 "HgN/A
6:00 PM63 °FBroken clouds.2 mph56%30.12 "HgN/A
5:30 PM64 °FScattered clouds.3 mph49%30.12 "HgN/A
5:00 PM64 °FPassing clouds.3 mph52%30.12 "HgN/A
4:30 PM63 °FScattered clouds.5 mph56%30.12 "HgN/A
4:00 PM63 °FBroken clouds.6 mph64%30.15 "HgN/A
3:30 PM63 °FBroken clouds.2 mph59%30.15 "HgN/A
3:00 PM61 °FScattered clouds.5 mph59%30.15 "HgN/A
2:30 PM59 °FScattered clouds.3 mph63%30.18 "HgN/A
2:00 PM59 °FScattered clouds.5 mph68%30.18 "HgN/A
1:30 PM57 °FPassing clouds.2 mph67%30.18 "HgN/A
1:00 PM55 °FScattered clouds.3 mph72%30.18 "HgN/A
12:30 PM55 °FScattered clouds.3 mph72%30.21 "HgN/A
12:00 PM52 °FScattered clouds.3 mph82%30.21 "Hg6 mi
11:30 AM52 °FPartly sunny.3 mph82%30.21 "Hg6 mi
11:00 AM50 °FPartly sunny.3 mph88%30.21 "Hg4 mi
10:30 AM50 °FPartly sunny.2 mph82%30.21 "Hg4 mi
10:00 AM48 °FPartly sunny.3 mph87%30.21 "Hg4 mi
9:30 AM48 °FFog.3 mph94%30.21 "Hg3 mi
9:00 AM48 °FFog.5 mph94%30.21 "Hg2 mi
8:30 AM46 °FFog.3 mph100%30.21 "Hg2 mi
7:00 AM46 °FFog.2 mph93%30.21 "Hg2 mi
6:30 AM45 °FFog.1 mph100%30.21 "Hg2 mi
6:05 AM45 °FFog.2 mph100%30.18 "Hg1 mi
5:30 AM45 °FFog.2 mph100%30.18 "Hg2 mi
5:00 AM45 °FFog.1 mph93%30.18 "Hg2 mi
4:30 AM45 °FFog.2 mph93%30.18 "Hg2 mi
4:00 AM45 °FFog.2 mph100%30.18 "Hg1 mi
3:30 AM45 °FFog.No wind100%30.21 "Hg1 mi
3:00 AM45 °FMostly cloudy.2 mph100%30.21 "Hg2 mi
2:30 AM43 °FMostly cloudy.No wind100%30.21 "Hg1 mi
2:00 AM45 °FFog.No wind93%30.21 "Hg1 mi
1:30 AM45 °FPassing clouds.No wind93%30.21 "Hg1 mi
1:00 AM45 °FFog.No wind100%30.21 "Hg2 mi
12:30 AM45 °FFog.1 mph100%30.21 "Hg2 mi
12:00 AM46 °FPartly cloudy.3 mph93%30.21 "Hg5 mi
11:30 PM
Sun, May 1
46 °FPartly cloudy.2 mph93%30.21 "Hg5 mi
11:00 PM46 °FSprinkles. Partly cloudy.8 mph93%30.18 "Hg5 mi
10:30 PM46 °FSprinkles. Partly cloudy.7 mph93%30.21 "Hg5 mi
10:00 PM46 °FPassing clouds.3 mph93%30.21 "Hg5 mi
9:30 PM46 °FPartly sunny.5 mph93%30.18 "Hg5 mi
9:00 PM46 °FRain showers. Broken clouds.8 mph93%30.18 "Hg2 mi
Weather by CustomWeather, © 2016

See weather overviewHow to use our weather pages